This is the latest recevied weather packets stored in our database for station/object N3WMC. If no packets are shown the sender has not sent any weather packets the latest 10 day(s).
| Time | Temp. | Humidity | Pressure | Rain* | Wind** | Luminosity | Snow |
|---|---|---|---|---|---|---|---|
| 1777903142 | 16.11° C | 48% | 1011.8 hPa | 0 mm | - | 79 W/m² | - |
| 1777902839 | 16.11° C | 50% | 1011.8 hPa | 0 mm | - | 284 W/m² | - |
| 1777902536 | 15.56° C | 49% | 1012 hPa | 0 mm | - | 74 W/m² | - |
| 1777902233 | 15.56° C | 49% | 1011.9 hPa | 0 mm | - | 65 W/m² | - |
| 1777901931 | 15° C | 50% | 1012.1 hPa | 0 mm | - | 68 W/m² | - |
| 1777901629 | 15.56° C | 52% | 1012 hPa | 0 mm | - | 61 W/m² | - |
| 1777901326 | 15° C | 51% | 1012 hPa | 0 mm | - | 125 W/m² | - |
| 1777901023 | 15° C | 49% | 1011.9 hPa | 0 mm | - | 158 W/m² | - |
| 1777900721 | 15° C | 51% | 1012 hPa | 0 mm | - | 270 W/m² | - |
| 1777900417 | 14.44° C | 51% | 1012.1 hPa | 0 mm | - | 202 W/m² | - |
| 1777900114 | 14.44° C | 52% | 1012.1 hPa | 0 mm | - | 90 W/m² | - |
| 1777899811 | 14.44° C | 52% | 1011.9 hPa | 0 mm | - | 99 W/m² | - |
| 1777899508 | 13.89° C | 52% | 1012.1 hPa | 0 mm | - | 63 W/m² | - |
| 1777899206 | 13.89° C | 53% | 1012 hPa | 0 mm | - | 59 W/m² | - |
| 1777898903 | 13.33° C | 55% | 1011.9 hPa | 0 mm | - | 77 W/m² | - |
| 1777898600 | 13.33° C | 55% | 1012 hPa | 0 mm | - | 52 W/m² | - |
| 1777898297 | 13.33° C | 54% | 1012 hPa | 0 mm | - | 52 W/m² | - |
| 1777897994 | 12.78° C | 54% | 1012 hPa | 0 mm | - | 55 W/m² | - |
| 1777897690 | 13.33° C | 53% | 1012.1 hPa | 0 mm | - | 59 W/m² | - |
| 1777897387 | 12.78° C | 54% | 1011.8 hPa | 0 mm | - | 195 W/m² | - |
| 1777897082 | 12.78° C | 54% | 1012 hPa | 0 mm | - | 190 W/m² | - |
| 1777896779 | 12.78° C | 54% | 1012 hPa | 0 mm | - | 167 W/m² | - |
| 1777896477 | 12.22° C | 56% | 1011.8 hPa | 0 mm | - | 167 W/m² | - |
| 1777896174 | 11.67° C | 56% | 1011.8 hPa | 0 mm | - | 153 W/m² | - |
| 1777895872 | 11.67° C | 58% | 1012 hPa | 0 mm | - | 72 W/m² | - |
* Rain latest hour (hover to see other rain measurements)
** Current wind speed in m/s (hover to see current wind gust speed)